Wind_Speed
13 14 14 14 15 15 15 16 17 18 19 20 20 21 24 25 24 24 28 27 22 20 20 21 21 21 21 21 20 18 16 16 16 17 18 19 21 24 27 28 28 28 26 25 26 26 26 26 27 27 27 28 25 21 20 20 20 20 19 19 19 19 19 19 19 19 18 17 17 17 17 17 18 18 18 18 18 18 17 16 15 15 14 14 13
14 15 14 14 14 14 14 15 16 18 19 20 20 20 21 22 21 18 21 21 17 16 20 22 22 22 21 21 21 21 21 19 18 18 18 19 19 22 24 25 27 27 26 26 26 26 27 27 27 27 27 28 25 22 21 21 20 20 20 19 20 19 19 20 20 21 20 17 17 17 16 16 18 18 18 18 19 18 17 16 15 15 15 15 14
13 13 12 12 12 13 14 15 17 18 19 20 20 19 19 18 17 14 15 16 15 16 20 23 23 23 22 22 22 23 23 22 20 19 19 19 19 19 22 23 25 27 26 26 25 26 27 28 28 27 27 28 26 23 22 22 21 21 20 20 21 20 20 21 21 21 20 18 18 18 17 17 18 19 19 20 19 19 18 17 16 15 15 15 15
13 12 12 11 12 13 14 16 17 18 19 20 20 20 19 18 17 16 17 18 18 19 22 23 24 25 24 23 23 24 24 23 21 20 20 21 20 19 21 23 26 28 27 26 26 26 28 28 28 27 27 27 26 23 23 21 20 21 21 21 22 21 21 22 22 21 20 19 18 19 18 17 18 20 20 20 19 19 18 17 16 16 15 16 16
15 14 14 13 13 14 15 17 18 19 20 21 22 22 20 19 19 20 21 22 22 24 25 25 26 27 26 25 24 25 25 24 22 21 21 22 22 21 22 24 28 29 26 26 28 28 29 28 28 28 27 27 26 24 22 21 21 22 22 22 22 22 22 22 22 22 22 21 20 20 18 18 20 21 21 20 19 19 19 18 17 17 16 16 17
17 17 17 16 16 16 17 18 20 20 21 23 24 24 22 20 20 21 23 25 26 27 27 28 29 29 29 28 27 27 27 25 23 22 22 23 23 23 23 25 28 28 24 25 28 29 29 29 29 28 27 27 27 25 23 22 22 23 22 22 22 22 22 22 23 24 24 23 22 20 19 20 21 20 20 20 19 19 19 19 18 18 17 17 18
19 19 19 18 18 18 18 20 21 22 23 24 24 24 22 21 21 21 22 24 27 29 30 30 30 30 29 29 28 28 29 27 25 24 24 24 25 25 25 26 27 25 23 25 29 30 30 30 29 28 28 28 28 26 25 24 24 24 23 23 23 23 23 23 24 24 24 24 23 22 21 22 21 20 20 20 19 19 19 18 18 18 18 19 19
20 21 21 20 20 19 19 20 21 23 24 24 24 24 23 22 22 22 22 23 26 29 30 31 31 31 30 29 29 29 30 29 27 26 26 25 26 26 26 26 26 25 25 26 29 31 31 31 30 28 28 28 28 28 27 26 25 24 23 24 24 24 23 23 24 23 22 23 23 23 23 22 21 20 20 20 19 18 17 17 18 19 19 19 19
20 21 22 22 21 21 20 20 21 22 24 25 25 24 24 24 23 23 23 24 24 26 29 31 33 32 31 30 31 31 32 30 28 28 27 27 27 27 27 26 25 26 26 26 27 29 31 32 31 29 29 29 28 27 26 25 25 24 24 23 23 23 23 23 24 23 21 23 24 24 24 24 22 21 20 20 19 18 18 19 20 20 19 18 18
19 20 20 21 20 20 20 20 21 22 24 25 25 24 24 25 24 23 23 24 24 25 27 30 32 32 32 31 31 32 32 30 28 28 29 29 29 27 26 26 26 26 27 26 26 27 29 31 31 30 29 28 27 25 24 23 23 23 23 23 23 23 23 23 24 23 22 24 25 23 22 23 23 22 21 21 21 20 20 21 20 20 19 17 17
18 19 19 19 19 19 20 20 21 22 24 26 26 25 25 25 24 22 21 22 24 25 26 28 30 31 30 30 31 31 31 30 29 29 30 32 30 27 26 26 27 28 28 27 26 26 26 27 28 29 28 28 26 24 22 21 21 20 20 20 21 22 22 24 25 23 22 24 23 21 21 23 23 22 23 24 24 23 22 22 21 20 18 16 15
18 18 18 19 19 19 20 20 20 22 23 26 27 26 26 26 25 23 21 21 23 24 25 27 29 29 29 30 30 31 31 32 31 30 32 34 32 29 28 28 29 29 29 29 28 26 25 26 26 28 28 27 25 22 20 20 20 20 20 20 20 21 21 22 23 22 22 24 24 22 23 23 22 22 24 26 26 26 25 24 22 20 17 14 14
19 19 19 19 19 19 20 20 20 21 23 25 26 27 27 27 27 26 24 23 23 23 24 26 28 29 29 30 31 31 32 32 31 32 34 34 32 30 30 30 31 31 31 30 29 27 26 26 26 26 26 24 22 21 20 21 22 22 22 21 21 21 21 21 20 21 21 23 24 23 22 22 22 23 25 26 27 28 28 26 24 21 17 15 15
20 19 20 20 20 20 21 21 21 21 22 24 24 25 26 27 27 26 26 26 26 24 23 24 26 28 29 30 32 33 34 33 32 32 33 32 31 31 31 32 33 32 31 30 27 25 25 24 24 24 22 22 22 22 22 22 23 23 23 23 23 22 22 21 21 21 20 21 23 21 19 21 23 24 26 27 29 30 31 29 25 20 17 17 17
20 20 21 21 22 22 22 22 22 21 22 23 23 23 23 25 27 27 26 28 28 26 24 24 25 28 29 30 32 33 34 33 33 34 34 32 33 32 31 32 33 32 30 27 25 24 24 23 23 23 23 23 23 23 22 22 22 23 23 23 23 23 23 23 23 23 22 22 22 19 17 18 21 23 26 29 31 34 33 29 22 17 16 17 18
20 20 21 21 22 23 23 22 23 22 22 22 22 22 22 23 26 28 27 26 26 24 24 24 25 27 28 29 31 32 33 33 34 35 34 33 33 33 31 31 31 30 27 25 25 25 25 24 24 24 24 23 22 20 20 20 20 21 22 22 23 24 24 24 24 24 24 23 22 20 18 18 19 22 25 29 32 33 30 24 18 16 17 19 21
18 19 20 21 21 21 22 22 22 22 22 22 22 22 21 22 24 25 25 23 21 19 19 21 23 24 26 27 28 29 31 32 33 35 35 35 35 34 32 31 31 29 27 27 27 27 26 25 25 24 22 21 19 18 18 18 18 20 20 21 21 22 22 23 23 24 23 23 22 21 19 19 19 20 22 25 26 25 22 21 18 18 20 21 21
17 18 19 20 19 19 20 20 20 21 21 22 22 21 20 20 19 20 20 19 16 13 13 15 18 19 20 22 25 27 30 31 32 34 35 35 35 33 29 30 31 29 27 28 28 26 26 26 25 22 20 19 17 17 17 16 17 17 18 19 19 19 20 20 20 21 22 21 21 20 19 19 19 20 21 23 22 21 21 22 21 21 21 21 20
16 17 18 18 18 18 19 19 20 20 20 21 22 21 21 19 17 15 15 14 13 11 11 13 15 14 14 16 16 17 21 24 28 32 32 32 32 30 28 29 31 28 26 27 28 27 27 26 24 22 20 19 18 17 17 16 16 16 17 18 19 18 18 19 19 19 20 20 19 18 17 18 19 20 21 23 23 23 23 22 20 20 20 20 20
15 16 16 17 18 18 19 20 20 20 19 19 21 21 21 19 17 14 12 12 12 11 11 13 15 15 16 15 13 14 16 18 24 30 31 28 27 25 24 26 28 28 28 28 28 28 27 24 23 22 20 19 18 17 17 16 15 16 17 18 19 19 19 19 19 19 19 19 18 18 18 18 19 21 23 24 24 22 20 18 17 17 18 18 18
14 14 15 16 17 17 18 19 20 20 19 18 19 21 20 18 17 15 13 11 10 11 11 10 10 10 10 13 15 17 18 19 24 30 31 28 26 22 21 25 27 28 31 30 28 27 27 25 24 22 20 19 19 17 17 17 16 17 17 18 20 20 20 20 21 21 20 20 20 20 19 18 19 20 21 21 20 18 17 16 16 17 18 19 20
14 14 14 15 15 16 16 17 18 19 19 18 18 19 19 16 15 15 14 11 10 11 10 9 7 7 9 12 15 14 15 18 22 28 31 30 27 23 22 26 26 24 26 28 27 25 25 23 22 22 20 19 19 18 18 18 18 18 18 19 20 20 20 21 21 20 19 19 20 19 18 17 17 17 17 17 16 16 16 16 17 18 19 20 21
14 14 14 14 15 16 16 15 15 16 17 17 17 17 17 15 14 14 14 12 11 11 11 9 8 9 12 14 13 11 13 13 14 20 25 27 27 26 24 25 26 24 24 26 26 24 23 21 21 21 19 18 18 18 19 20 20 20 19 20 21 21 20 21 20 18 17 17 17 16 16 16 16 16 16 16 15 16 16 16 17 18 20 21 22
15 13 13 14 15 16 16 15 15 14 15 15 15 15 15 14 13 13 13 13 13 12 12 12 10 9 10 12 12 13 14 14 14 17 20 22 25 30 29 26 26 27 25 24 25 23 22 22 21 20 19 18 19 20 22 23 22 20 20 21 21 20 20 20 20 20 19 19 18 17 17 17 17 17 17 17 17 17 17 18 19 20 21 22 22
14 13 14 15 16 17 17 16 16 15 15 15 14 14 13 12 12 12 12 12 12 13 13 15 14 11 9 10 12 12 13 16 17 18 20 20 23 28 30 27 25 25 23 22 23 23 23 24 22 20 19 19 20 22 25 25 23 20 20 22 22 23 22 21 21 21 20 20 19 18 18 18 18 18 18 18 18 18 18 19 20 20 21 21 21
13 13 14 15 17 18 18 18 17 16 17 17 16 14 13 12 11 11 11 11 11 11 11 13 14 14 12 11 12 13 13 15 16 17 18 19 20 23 26 26 26 26 25 24 24 24 25 25 23 21 21 21 21 23 26 26 24 22 22 23 23 23 22 21 21 20 19 19 18 18 18 18 18 18 18 18 18 19 19 19 20 20 20 20 19
13 13 14 14 15 16 17 17 18 17 18 18 18 17 15 14 13 13 13 12 11 11 11 10 10 12 13 13 12 12 13 15 17 17 18 19 20 22 25 27 28 28 27 27 26 27 27 26 25 23 23 23 24 26 27 26 22 21 23 24 23 21 19 19 20 19 18 18 18 18 18 18 17 18 18 18 18 18 18 18 18 18 18 17 17
13 14 15 15 15 16 16 16 17 17 17 18 19 18 16 15 14 14 14 14 12 11 11 11 11 11 11 12 12 12 12 13 15 17 18 19 20 21 24 27 29 30 30 30 29 30 30 29 28 27 28 29 29 29 29 28 25 22 23 23 22 20 18 18 18 18 17 18 18 17 17 17 17 17 17 17 17 17 16 16 16 15 15 16 16
13 14 15 16 16 16 16 17 17 16 17 17 18 18 18 17 16 15 14 14 13 12 11 11 11 11 11 10 10 10 10 11 12 13 15 16 17 20 23 26 29 31 33 33 34 33 33 33 32 32 32 33 31 31 31 30 29 27 25 23 22 21 20 19 18 18 18 17 17 17 17 17 16 16 15 15 15 15 14 14 14 14 15 15 16
13 13 14 15 16 17 16 17 17 17 17 17 17 17 17 18 18 17 16 15 14 13 12 12 11 11 11 11 10 9 9 9 9 11 13 15 17 20 23 26 29 31 33 34 35 35 35 36 35 35 34 33 33 32 31 30 30 29 27 23 21 19 18 18 17 16 16 15 15 15 15 15 14 13 13 13 13 13 13 13 14 14 15 15 17
14 14 14 15 16 16 16 16 17 17 17 17 17 17 17 17 18 19 19 18 16 14 13 11 10 10 10 9 9 9 9 8 9 10 13 16 18 20 22 23 25 27 30 31 33 33 34 34 35 35 36 37 36 35 34 33 32 30 25 20 17 16 15 14 14 13 13 13 13 12 12 12 12 12 12 12 12 13 13 13 14 14 15 16 17
15 15 14 14 15 16 15 15 15 16 16 16 16 16 16 16 17 17 18 18 18 17 15 13 11 9 8 7 7 7 7 7 8 10 11 14 16 19 21 22 23 24 25 27 29 30 31 30 30 31 33 34 33 32 30 30 28 25 21 17 15 14 14 13 13 12 11 10 10 10 11 11 11 11 12 12 12 12 13 13 14 15 16 17 17
16 16 15 15 15 16 15 14 14 14 14 14 14 14 14 14 15 15 16 16 17 17 17 16 14 12 10 8 7 6 5 6 7 9 11 13 14 16 18 20 21 23 24 25 26 28 29 29 29 28 28 28 28 28 27 26 24 21 19 16 15 14 14 13 12 10 9 9 9 10 10 11 11 11 12 12 12 12 13 14 14 15 15 16 16
17 17 16 16 16 16 16 15 15 14 13 13 13 14 13 13 13 13 13 14 14 15 15 15 15 13 11 9 7 6 4 4 5 6 8 10 12 13 14 16 18 20 22 23 24 25 25 26 27 26 26 25 25 26 25 24 21 18 17 15 14 13 11 10 9 8 8 9 10 10 10 11 11 11 11 11 12 13 13 14 14 14 14 14 14
17 18 18 17 18 18 17 17 16 16 15 14 14 14 13 13 12 12 12 12 12 12 12 12 12 12 11 9 7 5 4 2 2 3 5 6 8 8 10 13 15 16 18 20 21 22 22 22 22 22 22 22 22 21 20 18 16 15 14 12 11 9 7 7 7 8 9 10 10 10 10 10 11 11 11 11 12 12 13 13 13 12 12 13 13
19 19 19 19 20 20 19 18 17 17 17 17 16 16 15 13 12 13 13 12 11 11 11 11 10 9 9 8 7 6 4 3 3 4 5 6 7 7 9 11 11 12 13 14 15 16 17 17 18 18 18 19 19 18 18 16 15 13 12 9 8 6 6 6 7 7 8 8 8 9 9 10 10 10 11 11 11 11 11 11 11 11 11 11 11
19 19 19 19 19 19 19 19 18 18 18 18 18 18 18 16 14 13 13 13 12 12 11 11 10 9 9 8 7 6 5 5 4 4 4 5 5 5 6 6 7 8 9 9 10 11 12 13 14 15 15 16 16 16 16 15 13 12 10 9 7 6 6 6 6 6 7 7 8 9 10 10 10 10 10 10 10 10 10 10 10 10 10 10 10
18 18 18 18 18 18 18 18 18 18 18 17 17 18 18 18 17 15 14 14 13 12 11 11 11 10 10 8 7 6 6 5 5 5 4 3 3 3 3 3 5 6 8 9 10 11 11 12 13 13 14 14 14 14 13 13 12 11 10 9 8 7 7 7 7 8 8 9 9 10 10 9 9 9 9 9 9 9 9 9 8 8 8 8 8
17 17 17 17 17 17 18 18 18 18 17 17 16 17 18 19 19 18 16 15 14 13 12 11 11 11 10 9 8 7 7 6 6 5 5 4 3 2 2 3 5 6 7 8 10 10 11 11 11 11 11 11 11 10 10 9 9 9 9 8 8 8 8 8 8 9 9 9 9 9 8 8 8 8 8 8 8 8 8 7 7 7 7 8 8
15 16 17 17 17 17 18 19 18 18 18 17 17 18 20 20 20 19 18 16 15 14 12 10 11 11 11 9 9 8 7 7 6 6 6 5 4 3 3 3 4 5 6 6 7 8 8 8 8 8 8 7 7 7 7 7 7 7 7 7 7 7 8 8 8 8 8 8 7 7 7 7 7 7 7 7 7 7 7 6 6 7 7 8 8
15 15 16 17 16 16 17 18 17 17 19 19 19 19 20 20 20 20 19 18 16 14 12 11 14 15 13 10 9 9 8 7 7 7 7 6 6 5 4 4 3 4 5 5 5 5 4 4 4 4 4 5 5 6 6 7 7 6 6 7 7 8 8 8 8 8 7 7 7 7 7 7 6 6 6 6 6 6 6 6 6 7 7 8 9
16 16 17 17 16 16 17 17 17 17 18 20 19 18 17 18 19 20 20 20 18 15 12 14 17 18 17 13 10 10 9 8 7 8 7 7 7 6 5 5 4 3 3 3 2 2 1 1 1 1 2 2 3 4 5 5 6 7 7 8 8 8 8 8 8 7 7 7 7 7 6 6 6 6 6 5 5 5 5 6 6 7 7 7 7
17 17 18 17 17 17 16 16 16 17 17 18 18 18 17 16 17 18 18 19 18 16 13 14 17 18 18 16 13 10 10 9 8 8 8 8 7 7 6 6 5 4 3 3 2 2 3 3 3 3 3 3 4 5 6 6 7 8 8 8 9 8 8 8 8 8 7 7 7 6 6 5 5 5 4 4 4 4 5 5 5 6 6 6 6
17 18 18 18 18 18 17 16 16 17 18 18 17 17 18 18 18 18 17 17 17 16 13 14 16 17 17 17 15 11 9 10 9 9 9 9 8 8 8 7 6 5 5 5 5 5 5 5 5 5 5 6 6 7 7 8 8 9 9 9 9 8 8 8 8 8 8 7 6 5 5 4 3 3 3 3 3 3 3 3 4 4 5 5 5
16 16 17 17 18 18 18 17 17 17 18 17 16 16 17 18 19 19 17 16 16 16 15 15 17 18 17 17 17 14 10 10 10 9 10 10 10 9 9 8 8 7 7 7 7 7 7 7 7 7 7 8 8 8 9 9 9 9 9 9 9 9 9 9 8 8 7 6 5 4 3 3 2 2 2 2 2 2 2 3 4 4 5 5 5
15 16 16 17 17 17 18 18 17 17 17 16 16 16 16 17 18 19 18 17 17 17 16 17 18 18 17 17 17 16 13 11 10 9 9 10 11 11 10 10 9 9 9 9 9 9 8 8 8 8 8 9 9 9 10 10 9 9 9 9 9 9 9 9 8 7 6 5 4 4 3 2 1 1 0 1 2 3 4 4 5 5 5 4 4
15 15 16 16 17 18 18 18 18 18 17 16 16 16 17 17 18 18 19 19 19 18 17 16 17 18 17 16 15 14 14 13 12 11 10 10 11 12 11 11 10 10 10 10 10 10 9 9 9 10 10 10 10 10 10 10 10 10 10 10 10 10 9 9 8 7 6 5 4 4 3 2 2 3 3 4 4 4 4 4 4 4 4 5 5
15 15 15 16 17 18 19 19 19 18 18 18 17 16 16 17 18 18 18 18 18 17 15 15 16 16 17 16 14 13 14 14 13 11 10 10 11 12 12 12 11 11 10 10 10 10 10 10 10 11 11 11 11 11 11 11 11 11 11 10 10 10 9 8 7 6 6 5 5 4 4 3 4 5 5 4 4 4 4 4 4 5 5 6 6
15 15 15 16 17 18 18 19 18 18 18 18 18 16 16 16 16 17 17 17 16 15 14 15 15 15 15 16 16 14 14 13 11 10 9 9 10 10 11 12 11 11 11 10 10 10 10 11 11 11 11 11 11 11 11 12 11 11 11 11 10 10 9 8 7 7 6 5 5 4 4 4 4 4 4 3 3 3 3 4 5 6 6 6 7
15 16 16 17 17 18 18 18 18 18 18 18 18 17 16 15 16 16 16 16 16 15 15 15 15 15 15 16 16 15 14 12 10 9 9 9 9 9 9 10 11 11 10 9 9 10 10 10 11 11 11 12 12 12 12 12 12 12 11 11 10 9 8 8 7 7 6 5 5 4 4 3 3 3 2 2 3 3 4 4 5 6 6 6 7
17 17 17 17 17 17 17 17 17 18 19 19 18 17 16 15 15 15 15 15 15 15 15 15 15 15 15 16 17 16 15 13 11 10 8 8 8 8 7 8 9 9 9 9 9 9 10 10 11 11 12 12 13 13 13 12 12 11 11 10 9 8 7 7 6 6 5 5 4 3 3 2 1 1 1 2 3 4 4 5 5 6 6 6 6
Wind_Direction
301 299 298 299 301 302 305 307 309 309 307 303 299 297 299 305 300 273 254 247 239 240 252 259 261 263 263 259 258 265 272 277 283 279 272 269 261 249 241 237 237 236 234 232 235 238 236 235 237 238 238 234 225 218 219 222 224 225 226 225 224 226 230 229 226 226 229 229 233 235 232 231 232 231 232 230 227 225 225 227 230 232 234 236 236
297 298 300 301 305 309 313 317 317 317 315 309 304 301 300 305 307 284 256 248 241 242 253 259 261 263 263 258 257 265 272 275 279 277 270 266 261 250 242 238 236 235 234 233 233 236 235 234 236 237 239 236 226 219 220 221 223 225 224 223 224 225 229 231 228 230 232 230 232 236 234 231 231 231 232 232 229 227 227 228 230 232 235 238 239
295 296 298 300 304 309 314 318 321 320 320 317 312 305 297 294 295 284 262 254 253 256 259 259 259 259 260 260 261 267 271 272 273 273 267 259 255 250 242 237 235 233 233 234 234 233 233 234 235 237 238 235 226 219 220 221 221 224 222 220 222 224 225 228 228 231 235 234 233 236 234 232 233 231 231 232 231 229 229 230 232 233 234 238 241
300 298 298 299 300 305 310 314 318 319 321 322 319 311 300 287 277 269 262 258 257 260 262 260 257 257 258 260 262 266 269 268 265 265 262 255 249 247 243 238 236 234 231 233 234 233 232 232 234 234 235 234 228 221 220 220 221 223 221 219 221 223 223 224 226 229 234 236 235 236 234 231 233 235 235 234 233 231 231 232 233 234 235 237 241
303 302 301 301 300 303 308 312 315 317 318 321 321 316 307 292 279 268 261 259 258 260 261 259 256 256 258 259 260 264 266 263 259 256 257 254 246 243 242 239 239 238 233 232 235 234 230 230 232 231 229 229 227 222 221 221 222 223 222 219 221 223 222 222 224 228 233 235 235 236 235 232 233 237 238 237 234 233 233 233 234 236 236 237 241
301 301 301 301 301 302 307 311 313 314 316 318 319 317 310 299 286 275 265 260 259 259 259 258 257 257 258 259 260 262 263 261 256 252 253 254 247 241 239 239 240 240 235 235 237 234 229 228 230 229 226 226 225 223 222 221 222 224 222 221 222 222 222 222 223 227 231 233 234 234 234 234 235 237 238 237 236 234 234 235 236 238 238 238 241
299 299 298 298 298 300 304 308 311 312 314 317 319 319 315 305 292 282 272 264 259 257 256 257 258 258 258 258 257 257 257 256 251 248 250 252 248 241 238 240 242 241 237 237 236 232 227 227 227 226 225 226 226 226 224 221 221 224 223 223 224 223 223 225 226 228 230 234 237 238 237 238 236 236 236 236 235 235 235 237 237 238 239 240 243
299 299 298 296 297 298 300 303 307 309 312 315 317 318 319 313 301 288 279 270 263 259 256 255 256 256 257 257 256 253 253 252 248 244 244 247 246 241 237 239 243 245 241 235 232 229 227 225 224 224 226 228 227 227 225 222 220 222 224 226 226 226 226 228 231 231 230 233 237 238 239 240 239 236 235 234 235 235 235 235 236 239 243 246 248
299 299 298 297 297 298 299 300 303 307 309 312 314 316 317 317 311 298 286 275 267 261 256 254 253 254 254 254 254 253 252 251 246 240 240 243 243 241 238 237 239 240 235 228 227 227 226 226 225 225 228 230 229 227 227 224 220 218 221 225 228 229 229 229 233 234 231 233 236 236 237 239 239 238 236 236 235 232 230 232 236 241 246 249 251
301 299 299 299 300 301 301 302 303 305 307 309 312 317 317 316 313 306 295 283 272 263 257 253 251 251 251 251 252 253 252 251 247 242 240 241 240 236 234 236 236 233 226 222 226 228 227 228 228 227 229 232 233 232 232 232 227 220 219 222 226 230 230 231 233 233 230 232 234 233 235 237 237 235 234 234 233 228 228 232 237 242 246 251 254
301 300 301 302 303 304 305 305 305 305 306 307 312 317 319 316 312 307 299 290 279 268 260 255 252 249 247 248 250 251 252 250 246 242 240 242 241 233 229 231 231 226 221 221 226 229 229 230 230 228 228 230 231 231 230 231 232 229 226 227 229 232 232 231 233 232 231 232 231 228 230 234 235 234 233 233 230 226 227 234 239 242 245 251 255
300 300 303 304 306 307 308 308 307 305 305 308 313 318 320 318 313 307 300 292 283 274 266 259 255 251 247 247 248 249 251 249 246 241 238 239 238 229 224 227 227 223 221 222 225 227 229 232 232 228 226 225 226 227 226 225 228 230 229 229 231 234 234 234 233 232 233 234 231 225 226 231 234 233 233 234 231 226 226 232 238 241 245 249 250
300 300 303 306 308 308 308 309 309 307 307 308 313 317 318 317 314 310 305 297 287 277 269 263 259 255 250 247 246 247 249 249 247 242 238 236 235 227 222 224 224 221 221 222 223 226 230 233 231 225 220 219 222 225 225 224 225 227 227 228 229 231 232 233 233 233 236 237 233 227 225 226 230 231 232 235 233 230 227 229 231 235 239 243 245
302 302 302 305 307 307 307 307 307 308 307 308 311 313 314 314 311 309 307 303 293 281 271 265 261 256 251 248 247 246 246 247 245 241 237 236 236 230 222 220 220 221 221 221 222 226 227 226 222 218 215 217 221 225 226 226 227 228 229 229 229 230 230 230 230 231 235 239 239 236 230 227 231 234 236 236 234 232 230 229 227 228 233 242 248
305 304 303 303 304 305 305 304 304 303 302 303 306 308 309 308 305 304 304 303 296 283 271 266 262 258 254 250 248 247 246 245 242 239 236 237 237 231 222 217 218 219 218 218 221 222 218 215 214 215 218 220 223 226 227 228 229 230 231 231 230 231 231 230 230 231 232 235 239 242 238 234 236 238 239 237 234 231 231 230 228 228 234 242 248
308 307 305 304 303 303 304 303 302 301 298 297 297 299 302 303 302 302 303 303 299 284 269 263 262 259 254 251 249 248 246 244 241 237 236 237 234 228 222 217 216 215 214 214 218 215 211 212 215 217 219 221 222 224 224 225 228 230 231 231 230 230 231 231 231 231 231 232 236 240 238 237 238 237 237 237 236 234 231 227 226 230 237 244 247
310 310 309 307 305 303 303 303 303 302 300 296 293 294 298 300 300 301 302 304 305 293 272 263 263 260 256 254 251 245 242 241 237 234 235 234 227 219 217 216 212 212 213 213 215 212 208 212 215 214 213 215 215 217 220 223 226 229 230 230 230 231 232 233 233 231 231 232 235 238 236 234 234 231 230 231 232 231 225 220 223 229 236 245 249
311 312 311 310 309 306 304 304 304 305 304 301 298 296 298 299 298 299 301 303 307 304 287 272 265 260 259 260 255 247 242 238 234 232 231 228 220 211 209 210 208 208 210 209 209 211 209 208 208 206 206 208 211 216 221 224 228 231 232 232 231 231 231 233 233 231 231 231 234 236 234 231 229 225 221 222 224 225 223 224 228 230 234 243 251
315 312 312 313 312 310 308 307 307 308 306 304 303 300 300 300 296 293 297 302 305 307 305 294 280 273 277 274 258 241 235 230 227 227 225 219 211 203 201 205 206 207 209 208 207 208 206 203 201 201 203 209 215 221 226 229 232 235 235 234 230 227 228 231 231 231 232 232 232 232 230 229 228 225 222 224 228 228 228 231 235 238 243 249 255
323 317 314 315 316 316 314 312 312 311 308 304 303 302 302 303 300 293 294 304 309 310 316 315 305 299 296 284 253 229 229 228 221 219 218 211 201 193 191 198 204 208 209 207 206 205 202 199 200 202 207 215 221 226 230 234 237 237 237 235 229 221 222 228 230 228 227 229 228 227 227 228 228 226 224 226 228 228 229 233 239 245 252 256 259
330 324 319 316 317 319 320 317 315 315 313 307 302 301 302 304 302 298 298 306 315 318 324 327 320 307 299 288 269 247 234 224 210 202 196 191 189 189 189 193 200 206 207 205 205 205 202 199 202 206 211 219 225 230 234 237 238 237 235 234 229 220 217 224 228 225 223 225 226 225 224 226 228 229 229 231 233 234 235 240 246 250 256 260 264
333 332 328 325 324 324 324 323 320 317 316 313 308 304 303 303 301 299 299 302 308 313 316 315 300 278 271 281 280 253 216 204 202 196 188 187 193 198 195 196 199 202 202 202 204 206 203 202 206 210 216 223 229 235 239 239 238 234 229 226 226 221 217 221 224 221 218 219 221 220 220 224 228 232 236 241 244 246 246 249 252 256 260 263 266
335 336 337 337 336 333 331 330 327 323 323 323 319 312 306 304 302 297 293 289 291 298 304 304 295 281 271 266 258 231 201 191 193 194 196 202 207 201 194 198 201 197 194 195 200 206 208 210 215 218 222 230 235 238 239 236 231 228 223 221 221 222 223 226 228 227 223 222 224 226 227 229 232 236 240 245 250 252 254 256 258 261 263 265 268
340 340 342 344 343 340 337 335 334 335 334 332 331 325 315 307 304 301 292 282 275 273 279 286 290 289 278 259 237 219 211 208 207 205 208 213 210 203 200 203 202 198 197 199 202 208 215 219 222 224 229 238 241 239 235 230 225 222 220 219 220 219 220 224 229 231 232 233 236 237 235 234 236 241 246 251 255 258 260 262 264 266 268 270 273
345 344 344 343 343 342 341 339 337 340 340 338 337 336 328 316 308 307 304 293 280 269 265 270 273 271 267 254 239 231 226 220 216 213 209 208 207 208 209 209 205 204 208 210 211 215 220 223 225 228 232 238 240 238 234 228 222 218 216 216 218 218 217 220 226 229 230 232 234 234 234 236 241 245 249 254 257 260 263 265 267 270 271 273 275
345 344 343 342 342 343 345 345 344 344 345 342 338 337 338 335 326 322 321 315 304 293 282 276 273 268 264 257 248 245 242 232 225 219 215 213 212 212 213 213 212 214 217 219 219 223 225 225 227 229 232 233 234 234 231 224 218 218 218 218 220 219 218 220 225 227 228 230 233 235 238 242 245 249 253 256 259 261 264 267 270 272 273 274 275
346 345 346 346 346 346 347 349 350 350 350 350 346 342 340 339 337 334 332 329 323 316 308 301 293 282 274 270 263 257 253 249 245 244 240 234 229 223 220 219 219 220 222 224 226 230 231 230 230 231 229 228 228 226 221 216 216 220 220 218 217 218 216 217 222 225 228 232 236 239 243 246 250 254 256 259 262 265 267 269 271 272 273 275 277
348 349 350 351 352 353 352 354 356 356 355 355 354 350 345 341 336 332 330 329 328 325 320 316 315 310 299 290 282 272 265 259 255 253 251 248 246 242 237 232 228 227 227 228 231 233 233 231 229 224 220 221 223 219 214 213 215 220 221 217 216 218 219 220 223 227 230 235 239 243 247 249 251 254 256 260 263 266 267 268 270 272 275 278 280
352 351 351 353 354 355 357 359 0 1 1 1 358 354 351 349 346 340 336 332 329 327 325 321 318 317 314 308 300 290 282 275 269 265 263 260 258 256 252 248 242 238 234 234 236 236 234 231 227 221 218 220 219 213 210 212 213 218 223 222 218 219 222 224 227 231 234 238 241 243 245 247 249 253 256 260 262 263 265 267 269 272 276 279 282
2 358 355 355 355 356 359 2 4 5 7 8 4 359 356 355 353 350 347 345 343 339 334 327 320 314 312 309 305 298 290 280 270 264 259 255 251 249 248 247 246 243 240 237 236 235 231 229 227 224 222 220 215 211 212 215 215 216 218 216 212 215 221 225 228 232 235 238 241 242 245 248 250 252 255 256 258 261 263 266 269 273 276 280 284
13 9 4 1 1 2 4 5 5 6 10 11 9 7 5 2 359 357 354 353 353 354 352 346 335 325 318 314 310 302 292 280 270 261 254 249 246 245 244 245 244 243 240 236 233 230 228 228 228 226 221 215 210 209 211 213 211 210 207 204 205 210 215 219 222 225 228 233 238 241 244 246 247 250 252 254 257 260 263 267 272 276 280 284 287
19 18 15 11 10 12 12 9 6 7 9 10 10 9 9 7 4 3 1 358 356 357 1 2 358 349 342 337 332 322 308 292 279 271 264 257 251 248 247 246 246 245 243 241 237 234 232 231 231 228 224 219 215 214 214 213 209 202 195 194 197 201 205 210 214 217 222 227 233 237 240 243 246 250 253 255 258 262 266 272 276 280 284 287 290
23 23 22 19 18 19 18 14 10 9 8 7 7 9 10 9 6 5 5 3 1 360 1 4 7 8 7 4 359 348 331 310 292 279 272 267 262 257 253 250 249 247 246 245 243 240 238 236 234 234 234 232 228 226 225 223 215 203 193 192 196 199 203 205 207 210 217 225 232 237 241 245 248 251 254 257 262 267 272 276 280 283 287 290 292
28 27 26 26 25 24 24 21 18 16 13 10 8 7 8 8 7 4 3 3 2 1 2 4 7 10 12 10 7 3 351 327 302 284 276 272 268 266 262 257 253 250 248 245 243 241 240 238 236 235 235 233 229 225 224 222 216 206 199 197 198 199 198 197 201 210 221 230 238 243 245 248 251 254 258 263 268 272 276 280 284 288 291 292 294
34 33 32 33 33 31 31 29 27 24 22 20 16 10 7 7 4 358 357 359 357 356 359 2 3 4 5 4 0 355 350 331 298 279 274 274 269 262 259 258 255 251 249 246 243 240 238 235 233 231 229 226 223 218 213 209 204 199 195 192 188 186 186 194 209 221 228 235 241 244 247 250 254 258 263 268 272 277 282 286 290 292 294 295 296
39 36 34 35 34 33 31 30 29 28 27 28 25 19 12 9 3 355 353 354 350 345 348 354 355 354 355 355 350 342 331 309 284 268 264 267 264 255 254 256 254 247 243 240 237 235 232 229 225 221 217 213 209 203 197 191 185 180 176 172 171 177 191 209 221 227 231 238 243 248 254 259 262 267 271 275 279 284 288 290 292 294 294 297 299
36 34 32 30 28 27 26 25 24 24 25 28 29 25 18 13 8 1 356 354 350 343 341 342 342 340 340 339 337 333 326 315 300 286 275 272 267 255 250 247 236 224 218 213 210 209 208 205 203 200 196 192 188 184 180 175 170 166 165 167 176 187 199 212 223 230 238 245 252 258 262 265 268 272 277 281 285 288 289 290 292 294 296 300 303
29 26 26 25 23 21 20 18 17 17 18 19 22 22 18 15 11 5 1 1 360 353 344 337 331 326 325 323 319 316 314 314 310 302 291 280 264 242 224 210 199 190 183 177 174 173 174 174 173 172 171 170 168 167 167 166 166 168 171 175 183 191 199 212 225 235 242 247 252 256 260 264 270 275 280 283 285 285 286 289 293 295 299 303 305
25 19 18 20 20 18 15 14 12 10 8 7 8 7 7 8 6 3 1 2 0 356 353 347 334 322 316 314 311 307 303 302 304 302 296 289 275 247 206 182 176 171 166 162 159 155 154 155 155 153 153 155 156 159 163 166 168 171 174 178 186 195 204 216 226 232 236 241 245 251 258 264 270 274 276 277 278 281 286 292 296 298 300 303 303
23 16 13 16 18 15 12 11 9 6 2 359 356 353 352 354 357 358 357 355 355 356 356 349 337 329 321 311 304 301 297 292 292 292 288 282 273 255 224 195 175 167 163 159 156 153 151 150 150 149 150 153 156 160 163 163 163 166 171 181 193 202 210 217 223 228 232 238 244 251 258 262 265 267 269 271 275 282 289 293 295 298 299 299 299
18 12 10 13 14 12 10 10 10 7 2 357 353 350 348 349 353 355 353 352 355 358 353 341 338 339 336 322 306 300 297 290 283 283 284 279 270 259 244 222 194 173 166 161 156 154 152 150 154 158 160 161 164 165 165 166 169 177 189 199 206 211 215 218 221 226 231 236 242 248 251 255 257 259 263 270 277 284 290 293 295 295 296 297 299
10 8 8 9 9 8 9 10 10 5 358 356 358 359 356 353 352 352 351 351 352 355 354 351 350 351 351 345 326 305 299 296 283 276 277 274 265 257 248 236 219 201 189 181 171 168 174 194 208 202 183 175 174 175 179 184 192 200 207 211 213 215 216 217 221 225 228 232 237 239 240 243 247 252 259 269 278 285 289 291 292 293 295 298 299
3 3 4 5 4 4 6 9 7 1 357 359 3 3 0 355 350 349 349 348 347 349 354 357 356 357 358 356 344 318 305 304 292 278 273 270 261 253 246 240 236 234 234 239 249 255 258 259 252 237 218 207 204 204 205 206 208 210 211 210 210 211 212 213 216 219 220 222 223 224 225 229 237 247 258 265 273 280 283 284 287 293 298 304 309
359 359 0 1 1 1 2 4 3 360 0 3 3 360 358 355 349 346 347 345 343 347 354 357 357 358 356 353 350 338 317 306 298 284 273 266 260 254 248 245 246 250 253 257 259 257 254 248 240 233 227 220 216 215 212 210 209 208 207 206 206 206 206 208 210 210 209 210 209 210 212 216 225 241 255 262 268 273 279 288 300 313 321 326 332
357 356 357 358 359 358 359 2 1 359 360 1 359 355 356 354 348 346 346 344 344 350 353 353 356 358 352 347 350 350 331 308 299 290 276 266 260 256 254 253 254 255 255 256 255 252 249 242 233 227 226 225 221 217 214 209 207 206 205 203 202 200 199 199 200 199 197 195 191 188 192 203 215 233 253 273 291 310 328 338 346 354 353 350 350
353 352 353 355 356 355 355 357 358 358 358 357 353 350 351 351 351 351 349 343 344 350 350 346 350 355 351 344 345 349 342 322 306 292 278 266 259 256 254 254 255 255 254 253 251 247 242 236 229 224 222 222 219 216 212 208 204 203 202 198 196 194 192 190 188 186 183 176 169 165 169 178 179 158 52 20 19 20 14 9 11 13 7 0 1
350 349 350 351 352 352 352 351 352 354 355 353 349 348 349 351 355 357 353 344 342 346 345 340 342 349 351 347 343 342 341 333 318 302 286 269 258 256 255 252 252 253 252 251 250 246 238 232 227 222 218 217 215 212 209 204 200 197 195 191 188 185 183 179 174 169 162 153 146 143 142 135 111 83 63 47 37 32 24 16 17 20 13 6 10
347 347 347 347 347 347 348 349 349 350 350 349 346 348 352 353 354 356 353 347 342 341 340 337 338 344 349 351 347 341 338 336 327 314 298 279 264 259 258 255 253 254 252 249 246 241 235 230 225 220 216 214 212 208 203 198 193 189 186 183 180 177 173 166 159 153 146 140 135 129 120 103 86 74 65 54 44 38 29 18 14 13 9 6 5
344 342 342 342 342 343 345 347 348 349 350 348 346 348 351 351 349 350 351 348 343 339 336 336 337 338 343 348 350 348 345 342 337 327 313 296 277 266 262 260 258 257 254 249 241 235 231 228 223 218 213 210 207 203 198 193 189 184 181 178 175 169 163 157 151 147 142 137 132 123 109 94 83 75 68 59 45 35 25 15 8 1 360 359 355
338 337 337 338 340 341 343 345 346 347 349 348 347 346 347 345 343 345 346 345 342 338 334 334 334 333 333 338 344 348 349 347 338 326 313 302 288 275 266 262 258 254 252 248 240 233 229 225 219 215 209 205 201 198 194 190 186 182 179 176 172 166 160 156 153 151 149 146 140 130 117 104 95 82 64 41 25 16 9 4 358 353 351 350 344
334 335 335 337 339 340 341 342 343 344 345 345 345 345 343 340 338 338 338 339 340 338 335 334 333 330 329 331 335 340 346 348 343 330 313 300 291 281 270 263 259 253 248 245 240 232 226 222 217 211 206 202 198 195 192 189 185 181 178 175 172 169 165 163 161 161 159 156 154 149 140 130 117 71 20 7 4 0 355 352 351 349 348 346 342
Height
3125 3124 3123 3122 3121 3121 3120 3119 3118 3118 3117 3117 3116 3115 3113 3110 3107 3105 3105 3107 3108 3109 3112 3113 3114 3115 3116 3116 3117 3117 3118 3117 3117 3117 3118 3117 3117 3117 3117 3119 3121 3121 3122 3123 3125 3126 3127 3129 3130 3132 3133 3134 3134 3134 3136 3138 3140 3142 3143 3144 3146 3147 3148 3149 3150 3150 3151 3152 3153 3154 3155 3155 3156 3156 3157 3157 3158 3159 3159 3160 3161 3161 3162 3162 3162
3123 3122 3121 3120 3119 3119 3118 3117 3117 3116 3115 3114 3113 3112 3110 3108 3105 3104 3104 3105 3105 3106 3108 3110 3111 3112 3113 3113 3114 3114 3115 3115 3115 3115 3115 3115 3114 3114 3115 3116 3117 3118 3119 3120 3122 3123 3124 3126 3128 3129 3130 3131 3131 3131 3133 3135 3137 3139 3141 3142 3143 3145 3146 3147 3147 3147 3148 3150 3151 3152 3153 3153 3154 3155 3155 3156 3157 3157 3158 3158 3159 3159 3160 3160 3161
3121 3120 3120 3119 3118 3117 3116 3116 3115 3114 3113 3112 3111 3109 3107 3106 3105 3104 3103 3103 3104 3105 3107 3108 3109 3110 3110 3111 3111 3111 3111 3111 3111 3112 3112 3112 3112 3112 3113 3114 3114 3115 3116 3117 3119 3120 3121 3123 3125 3126 3127 3128 3129 3129 3129 3131 3134 3136 3138 3139 3141 3142 3143 3144 3145 3145 3146 3148 3149 3150 3151 3152 3152 3153 3153 3154 3155 3156 3156 3157 3157 3158 3158 3159 3159
3119 3119 3118 3117 3116 3116 3115 3114 3113 3112 3111 3110 3108 3107 3105 3104 3104 3103 3103 3102 3103 3104 3105 3105 3106 3107 3108 3108 3108 3108 3108 3108 3108 3109 3109 3109 3110 3110 3111 3112 3112 3112 3113 3114 3115 3117 3119 3120 3122 3123 3124 3125 3127 3128 3127 3129 3131 3133 3135 3137 3138 3139 3140 3141 3142 3143 3144 3145 3147 3147 3149 3150 3150 3151 3151 3152 3153 3154 3154 3155 3155 3156 3156 3157 3157
3116 3116 3116 3115 3114 3114 3113 3112 3111 3110 3109 3108 3106 3105 3103 3102 3102 3101 3101 3101 3101 3102 3102 3103 3103 3104 3104 3105 3105 3105 3104 3104 3104 3105 3106 3107 3107 3108 3108 3109 3108 3108 3109 3111 3112 3114 3116 3118 3119 3120 3121 3123 3125 3126 3125 3126 3129 3130 3132 3134 3135 3136 3137 3138 3139 3141 3141 3142 3143 3145 3146 3148 3148 3149 3149 3150 3151 3152 3152 3153 3154 3154 3154 3155 3155
3114 3114 3113 3113 3112 3111 3110 3109 3108 3107 3106 3105 3104 3102 3101 3100 3099 3099 3099 3098 3098 3099 3099 3100 3100 3100 3101 3101 3101 3101 3100 3100 3100 3101 3103 3104 3104 3105 3105 3105 3105 3105 3106 3108 3110 3111 3113 3115 3115 3117 3118 3120 3122 3122 3123 3124 3125 3127 3129 3131 3132 3133 3134 3135 3136 3137 3138 3139 3140 3142 3144 3145 3145 3146 3147 3148 3149 3149 3150 3151 3151 3152 3152 3153 3153
3112 3112 3111 3110 3110 3109 3108 3107 3106 3105 3104 3103 3101 3099 3098 3097 3096 3096 3095 3095 3095 3095 3096 3096 3096 3097 3097 3097 3097 3097 3096 3096 3097 3098 3099 3100 3101 3101 3101 3101 3101 3102 3104 3106 3107 3108 3110 3111 3112 3114 3116 3118 3119 3120 3120 3121 3122 3124 3126 3128 3129 3130 3131 3132 3132 3134 3135 3137 3138 3139 3141 3142 3143 3144 3145 3146 3147 3147 3148 3149 3149 3149 3150 3150 3150
3110 3110 3109 3108 3108 3107 3106 3105 3104 3103 3101 3100 3099 3097 3095 3094 3093 3092 3092 3091 3091 3091 3092 3092 3092 3092 3093 3093 3093 3092 3092 3092 3094 3095 3095 3096 3097 3097 3098 3098 3098 3099 3102 3103 3104 3105 3107 3108 3110 3112 3114 3116 3117 3117 3117 3118 3119 3121 3123 3125 3126 3127 3128 3129 3129 3130 3133 3134 3135 3136 3138 3139 3140 3141 3142 3143 3144 3145 3146 3147 3147 3147 3147 3148 3148
3108 3107 3107 3106 3105 3105 3104 3103 3102 3101 3099 3098 3096 3095 3093 3091 3090 3089 3088 3087 3087 3087 3087 3087 3088 3088 3088 3089 3089 3088 3088 3088 3090 3091 3091 3092 3093 3094 3094 3095 3096 3097 3098 3100 3101 3103 3104 3106 3107 3109 3112 3114 3115 3115 3116 3117 3117 3118 3119 3121 3123 3124 3125 3126 3126 3127 3129 3130 3131 3133 3134 3135 3137 3138 3139 3140 3142 3143 3143 3144 3144 3145 3145 3146 3146
3106 3105 3104 3104 3103 3102 3102 3101 3100 3099 3097 3095 3094 3092 3090 3089 3087 3086 3084 3083 3083 3082 3082 3082 3083 3083 3084 3084 3084 3083 3083 3084 3085 3087 3087 3087 3088 3089 3090 3091 3092 3094 3095 3097 3099 3100 3102 3104 3105 3107 3110 3112 3114 3115 3117 3117 3116 3116 3116 3117 3120 3121 3121 3123 3123 3124 3126 3127 3129 3130 3131 3132 3134 3135 3136 3138 3139 3140 3141 3141 3142 3143 3143 3144 3144
3104 3103 3102 3101 3100 3100 3099 3098 3097 3096 3094 3092 3091 3089 3087 3085 3084 3082 3081 3080 3079 3078 3078 3078 3078 3078 3079 3079 3079 3079 3079 3079 3081 3082 3083 3082 3083 3085 3086 3088 3089 3090 3093 3095 3096 3098 3100 3101 3103 3105 3107 3109 3111 3112 3114 3115 3115 3114 3114 3115 3116 3117 3118 3119 3120 3121 3123 3124 3126 3127 3128 3129 3130 3132 3134 3134 3135 3137 3138 3139 3140 3141 3141 3142 3142
3102 3101 3100 3099 3098 3097 3096 3095 3094 3093 3091 3089 3087 3086 3084 3082 3080 3079 3078 3077 3076 3075 3074 3074 3074 3074 3074 3075 3075 3075 3075 3075 3077 3078 3078 3078 3079 3081 3083 3084 3085 3088 3090 3091 3093 3095 3097 3098 3100 3102 3103 3104 3107 3109 3110 3111 3112 3113 3113 3114 3114 3115 3116 3117 3118 3119 3121 3121 3121 3123 3125 3126 3128 3129 3130 3131 3132 3134 3135 3136 3137 3139 3139 3140 3140
3099 3098 3097 3096 3095 3094 3093 3092 3091 3090 3088 3087 3085 3083 3081 3079 3077 3075 3074 3073 3072 3071 3071 3071 3070 3070 3070 3070 3070 3071 3071 3071 3073 3074 3075 3075 3076 3077 3079 3080 3082 3085 3086 3088 3090 3092 3094 3095 3097 3099 3100 3101 3104 3106 3107 3108 3109 3110 3111 3112 3112 3113 3114 3115 3116 3117 3118 3119 3119 3120 3122 3124 3125 3126 3126 3127 3129 3131 3132 3133 3135 3136 3137 3138 3138
3097 3096 3095 3094 3092 3091 3090 3089 3088 3087 3086 3084 3083 3081 3079 3076 3074 3072 3071 3070 3068 3067 3067 3067 3067 3067 3067 3066 3066 3066 3066 3067 3070 3072 3073 3073 3072 3073 3075 3077 3079 3081 3083 3085 3087 3089 3091 3093 3094 3096 3097 3099 3102 3103 3105 3106 3107 3108 3108 3109 3110 3111 3112 3113 3114 3115 3116 3117 3118 3119 3121 3122 3122 3123 3123 3125 3127 3128 3129 3130 3132 3133 3134 3135 3135
3093 3093 3092 3091 3090 3089 3088 3087 3086 3085 3083 3082 3080 3079 3077 3075 3072 3070 3068 3067 3065 3063 3063 3063 3062 3062 3062 3062 3062 3062 3063 3064 3065 3067 3069 3069 3069 3069 3072 3075 3076 3078 3080 3082 3084 3086 3088 3090 3092 3093 3095 3097 3099 3101 3102 3103 3104 3105 3105 3106 3107 3108 3109 3110 3111 3113 3114 3115 3115 3116 3118 3119 3120 3120 3121 3122 3123 3125 3126 3128 3129 3130 3131 3132 3132
3090 3089 3089 3088 3087 3086 3085 3084 3082 3081 3081 3079 3078 3076 3075 3073 3070 3067 3065 3063 3061 3060 3059 3059 3058 3058 3058 3058 3058 3058 3059 3060 3061 3062 3064 3066 3066 3067 3069 3072 3072 3074 3077 3079 3081 3083 3085 3087 3089 3091 3093 3095 3096 3098 3099 3100 3101 3102 3103 3104 3105 3106 3107 3108 3109 3110 3112 3112 3113 3114 3115 3116 3117 3118 3118 3120 3121 3122 3124 3125 3127 3127 3128 3129 3129
3088 3087 3086 3085 3084 3083 3082 3081 3079 3078 3077 3076 3075 3073 3072 3070 3068 3065 3063 3060 3058 3056 3055 3055 3055 3054 3053 3053 3053 3054 3055 3056 3057 3058 3059 3060 3062 3064 3066 3068 3069 3071 3074 3076 3078 3081 3083 3085 3087 3089 3091 3092 3094 3095 3096 3097 3098 3100 3101 3102 3103 3104 3105 3106 3107 3108 3109 3110 3111 3111 3112 3113 3114 3115 3116 3117 3119 3121 3122 3123 3123 3124 3125 3126 3126
3086 3085 3084 3082 3081 3081 3079 3078 3076 3074 3073 3072 3070 3070 3068 3067 3065 3063 3060 3058 3055 3054 3053 3052 3052 3051 3050 3050 3050 3050 3052 3053 3053 3054 3055 3056 3058 3061 3064 3065 3067 3069 3071 3073 3076 3079 3081 3083 3085 3086 3088 3090 3091 3093 3094 3095 3096 3097 3099 3100 3100 3101 3102 3103 3104 3105 3106 3108 3108 3109 3110 3111 3111 3112 3114 3115 3117 3118 3119 3120 3120 3121 3122 3123 3123
3085 3083 3082 3080 3079 3078 3077 3075 3073 3072 3070 3068 3066 3065 3065 3064 3062 3060 3058 3056 3054 3052 3051 3051 3050 3050 3049 3048 3048 3048 3048 3050 3051 3052 3053 3054 3056 3060 3062 3063 3064 3067 3069 3071 3074 3076 3078 3081 3082 3084 3086 3087 3089 3090 3091 3092 3094 3095 3096 3097 3098 3099 3100 3101 3102 3103 3104 3105 3106 3107 3108 3109 3109 3111 3112 3113 3114 3115 3116 3117 3118 3119 3120 3121 3121
3083 3081 3080 3078 3077 3076 3074 3073 3071 3069 3068 3066 3064 3062 3061 3060 3059 3058 3056 3055 3053 3051 3050 3049 3049 3048 3048 3047 3047 3047 3047 3049 3050 3049 3050 3053 3056 3059 3060 3060 3062 3065 3067 3069 3072 3074 3076 3078 3080 3082 3083 3085 3086 3088 3089 3090 3091 3093 3094 3095 3096 3097 3098 3099 3100 3101 3102 3103 3104 3104 3105 3106 3107 3109 3110 3111 3112 3112 3113 3114 3115 3116 3117 3118 3118
3081 3079 3078 3077 3075 3074 3072 3071 3069 3067 3065 3064 3062 3060 3058 3058 3057 3056 3055 3053 3052 3051 3049 3049 3048 3048 3047 3046 3046 3046 3046 3047 3046 3046 3047 3051 3055 3056 3057 3059 3061 3064 3066 3068 3071 3072 3073 3075 3077 3079 3081 3083 3084 3085 3086 3087 3089 3090 3091 3092 3093 3095 3096 3097 3098 3099 3099 3100 3101 3102 3103 3104 3105 3106 3107 3107 3108 3109 3110 3111 3112 3113 3113 3114 3114
3079 3078 3076 3075 3074 3072 3071 3069 3067 3065 3064 3062 3061 3059 3057 3056 3055 3054 3053 3052 3051 3050 3049 3049 3048 3048 3047 3045 3045 3045 3045 3045 3044 3045 3047 3050 3052 3054 3056 3059 3061 3063 3065 3067 3070 3071 3072 3073 3075 3076 3078 3080 3081 3083 3084 3085 3086 3087 3088 3090 3091 3092 3093 3094 3095 3096 3096 3097 3098 3099 3100 3101 3102 3103 3104 3105 3105 3106 3107 3108 3109 3110 3110 3111 3111
3078 3076 3075 3073 3072 3071 3070 3068 3066 3064 3063 3061 3059 3058 3056 3055 3054 3053 3052 3052 3051 3050 3049 3048 3047 3047 3046 3045 3045 3045 3046 3045 3045 3046 3047 3049 3050 3053 3055 3057 3059 3061 3062 3064 3066 3068 3069 3071 3072 3074 3076 3078 3079 3080 3081 3082 3083 3084 3085 3087 3088 3089 3091 3092 3092 3093 3094 3094 3096 3097 3098 3099 3100 3101 3102 3102 3103 3103 3104 3105 3106 3106 3107 3107 3107
3077 3075 3074 3072 3071 3069 3068 3067 3065 3064 3062 3060 3059 3057 3056 3055 3054 3052 3051 3051 3050 3049 3048 3047 3047 3046 3046 3045 3045 3045 3046 3046 3046 3047 3048 3049 3050 3052 3053 3054 3056 3058 3059 3061 3063 3064 3066 3068 3070 3072 3073 3074 3076 3077 3078 3079 3080 3081 3083 3084 3085 3087 3088 3089 3090 3090 3091 3092 3093 3094 3095 3096 3097 3098 3099 3099 3100 3100 3101 3102 3102 3103 3103 3102 3102
3076 3075 3073 3071 3070 3068 3067 3066 3064 3063 3061 3060 3058 3057 3055 3054 3053 3052 3050 3049 3048 3048 3047 3047 3046 3046 3045 3045 3045 3045 3046 3046 3046 3047 3048 3049 3050 3051 3053 3054 3055 3057 3058 3059 3061 3063 3064 3066 3068 3069 3070 3071 3073 3074 3075 3076 3077 3078 3080 3081 3082 3084 3085 3085 3086 3087 3088 3089 3090 3091 3092 3093 3094 3095 3096 3096 3097 3097 3098 3098 3098 3098 3098 3098 3098
3076 3074 3072 3071 3069 3067 3066 3065 3063 3062 3060 3059 3057 3056 3054 3053 3052 3051 3049 3048 3047 3046 3046 3045 3045 3044 3044 3044 3044 3044 3045 3046 3046 3047 3047 3048 3049 3050 3051 3053 3055 3056 3057 3058 3059 3061 3062 3064 3065 3066 3067 3068 3069 3071 3073 3074 3075 3076 3077 3079 3080 3080 3081 3082 3084 3084 3086 3087 3088 3088 3089 3090 3091 3092 3092 3093 3093 3093 3094 3094 3094 3094 3094 3094 3093
3075 3073 3072 3070 3068 3067 3065 3064 3063 3061 3060 3058 3057 3055 3054 3052 3051 3050 3049 3047 3046 3045 3045 3044 3043 3043 3043 3042 3042 3042 3043 3043 3045 3046 3046 3047 3048 3049 3050 3051 3052 3054 3055 3056 3057 3058 3059 3061 3062 3063 3064 3065 3066 3068 3069 3071 3072 3073 3074 3075 3076 3077 3078 3079 3081 3082 3083 3084 3085 3086 3086 3087 3088 3088 3088 3089 3089 3089 3089 3089 3090 3090 3090 3090 3090
3075 3073 3072 3070 3068 3067 3065 3064 3062 3061 3060 3058 3057 3055 3054 3052 3051 3049 3048 3047 3046 3045 3044 3043 3042 3042 3041 3041 3041 3040 3041 3041 3041 3042 3044 3045 3046 3047 3048 3048 3049 3050 3051 3052 3054 3055 3056 3057 3058 3059 3060 3061 3063 3064 3065 3066 3068 3070 3071 3072 3073 3074 3075 3077 3078 3079 3080 3081 3082 3082 3083 3084 3084 3085 3085 3085 3085 3086 3086 3086 3086 3086 3086 3086 3086
3075 3073 3072 3070 3069 3067 3065 3064 3062 3061 3059 3058 3056 3055 3053 3052 3050 3049 3047 3046 3045 3044 3043 3042 3041 3041 3040 3040 3040 3039 3039 3039 3039 3040 3041 3042 3043 3044 3045 3046 3047 3047 3048 3049 3050 3051 3052 3053 3054 3056 3057 3058 3059 3059 3060 3062 3063 3066 3067 3068 3069 3071 3072 3074 3075 3076 3077 3077 3078 3079 3080 3080 3081 3081 3082 3082 3082 3083 3083 3083 3083 3083 3083 3083 3083
3075 3073 3072 3070 3069 3068 3066 3064 3063 3062 3060 3058 3056 3055 3053 3052 3050 3048 3047 3045 3044 3043 3042 3041 3040 3039 3039 3039 3039 3039 3038 3038 3038 3038 3039 3039 3040 3041 3042 3043 3044 3045 3045 3046 3046 3047 3048 3049 3050 3052 3053 3054 3055 3056 3057 3058 3060 3062 3063 3064 3066 3067 3069 3070 3071 3072 3074 3075 3076 3076 3077 3077 3078 3078 3079 3079 3079 3080 3080 3080 3080 3080 3080 3080 3080
3075 3074 3072 3071 3069 3068 3067 3065 3064 3062 3061 3059 3058 3056 3054 3052 3051 3049 3047 3045 3044 3043 3042 3041 3040 3039 3038 3038 3037 3037 3037 3037 3037 3037 3037 3038 3038 3039 3040 3041 3042 3043 3044 3044 3044 3045 3046 3046 3047 3048 3049 3049 3050 3051 3052 3054 3055 3057 3059 3061 3062 3064 3066 3067 3068 3070 3071 3072 3073 3074 3075 3075 3075 3076 3076 3076 3077 3077 3077 3077 3077 3077 3077 3077 3077
3076 3074 3073 3071 3070 3069 3068 3067 3065 3064 3062 3060 3059 3057 3055 3053 3051 3050 3048 3047 3045 3043 3042 3041 3040 3039 3038 3037 3037 3036 3036 3036 3036 3036 3036 3036 3037 3037 3038 3039 3040 3041 3042 3043 3043 3044 3044 3045 3046 3047 3047 3048 3048 3048 3049 3050 3052 3053 3055 3057 3060 3061 3063 3064 3065 3066 3068 3069 3071 3072 3072 3073 3073 3073 3074 3074 3074 3074 3074 3074 3074 3074 3074 3074 3074
3076 3075 3074 3072 3071 3069 3068 3067 3066 3064 3063 3062 3060 3058 3057 3055 3053 3051 3050 3048 3047 3045 3043 3042 3041 3039 3038 3038 3037 3036 3036 3035 3035 3035 3035 3035 3035 3035 3035 3036 3036 3037 3038 3040 3041 3041 3042 3043 3044 3045 3046 3047 3047 3048 3049 3049 3050 3051 3053 3055 3057 3059 3060 3061 3062 3064 3065 3067 3069 3070 3070 3070 3071 3071 3071 3072 3072 3072 3072 3072 3072 3072 3071 3071 3071
3077 3076 3074 3073 3071 3070 3069 3068 3066 3065 3064 3062 3061 3059 3058 3056 3055 3053 3051 3050 3048 3047 3045 3043 3042 3040 3039 3038 3038 3037 3036 3035 3035 3035 3034 3034 3034 3034 3034 3033 3034 3034 3035 3036 3037 3038 3039 3040 3041 3042 3043 3044 3045 3046 3047 3048 3049 3050 3052 3053 3055 3057 3058 3059 3060 3062 3064 3065 3066 3067 3068 3068 3068 3069 3069 3069 3069 3069 3069 3069 3069 3069 3068 3068 3068
3078 3077 3075 3074 3072 3071 3070 3069 3067 3065 3064 3063 3061 3060 3059 3057 3056 3055 3053 3052 3050 3048 3047 3045 3043 3042 3041 3040 3039 3038 3037 3036 3035 3035 3034 3033 3033 3033 3032 3032 3032 3033 3033 3034 3035 3035 3036 3037 3038 3039 3040 3041 3043 3044 3045 3046 3048 3049 3051 3052 3054 3055 3057 3058 3059 3061 3062 3063 3064 3065 3066 3066 3066 3066 3067 3067 3067 3067 3066 3066 3066 3066 3066 3065 3065
3079 3078 3077 3075 3074 3072 3071 3070 3068 3067 3065 3064 3062 3061 3060 3058 3057 3055 3054 3052 3051 3049 3048 3047 3045 3044 3042 3041 3040 3039 3038 3037 3036 3035 3034 3034 3033 3033 3032 3032 3032 3032 3032 3032 3033 3034 3034 3035 3036 3037 3038 3039 3041 3042 3043 3045 3046 3048 3049 3051 3052 3054 3055 3057 3058 3059 3060 3061 3062 3063 3064 3064 3064 3064 3064 3064 3064 3064 3064 3064 3064 3064 3063 3063 3063
3080 3079 3078 3077 3075 3074 3072 3071 3069 3068 3066 3065 3063 3062 3061 3059 3058 3056 3055 3053 3052 3050 3049 3047 3046 3044 3043 3042 3041 3040 3039 3038 3037 3036 3035 3035 3034 3034 3033 3033 3033 3033 3032 3032 3033 3033 3034 3034 3035 3036 3037 3038 3040 3041 3042 3043 3045 3046 3047 3049 3051 3052 3054 3056 3057 3058 3058 3059 3060 3061 3062 3062 3062 3062 3062 3062 3062 3062 3062 3062 3061 3061 3061 3061 3060
3081 3080 3079 3078 3076 3075 3073 3072 3070 3068 3067 3066 3064 3063 3062 3060 3059 3057 3056 3054 3052 3051 3049 3048 3047 3045 3044 3043 3041 3040 3040 3039 3038 3037 3036 3035 3035 3034 3034 3034 3034 3034 3034 3034 3034 3034 3034 3035 3035 3036 3037 3038 3039 3040 3042 3043 3044 3045 3046 3048 3049 3051 3053 3054 3055 3056 3057 3058 3059 3060 3060 3060 3060 3060 3060 3060 3060 3060 3060 3060 3059 3059 3059 3059 3058
3082 3081 3080 3078 3077 3075 3074 3072 3071 3069 3068 3066 3065 3063 3062 3061 3059 3057 3056 3054 3053 3051 3050 3049 3047 3045 3044 3043 3042 3041 3040 3039 3038 3037 3037 3036 3036 3035 3035 3035 3035 3035 3035 3035 3035 3035 3035 3036 3036 3037 3038 3039 3040 3041 3042 3042 3043 3044 3045 3047 3048 3050 3051 3053 3054 3055 3056 3056 3057 3058 3058 3058 3059 3059 3059 3059 3059 3059 3058 3058 3057 3057 3057 3057 3056
3083 3082 3080 3079 3077 3076 3074 3073 3072 3070 3069 3067 3065 3063 3062 3060 3059 3057 3056 3055 3053 3051 3050 3049 3047 3045 3044 3043 3042 3040 3040 3039 3038 3037 3037 3037 3036 3036 3036 3036 3036 3036 3036 3036 3036 3036 3037 3037 3037 3038 3038 3039 3040 3041 3041 3042 3043 3044 3045 3047 3048 3049 3050 3052 3053 3054 3054 3055 3056 3056 3057 3057 3057 3057 3057 3057 3057 3057 3056 3056 3056 3056 3055 3055 3055
3083 3082 3081 3079 3078 3077 3075 3074 3073 3071 3069 3067 3066 3064 3062 3060 3059 3057 3056 3054 3053 3051 3050 3048 3047 3045 3043 3042 3041 3040 3039 3038 3038 3037 3037 3037 3036 3036 3036 3036 3036 3036 3036 3036 3037 3037 3037 3037 3038 3038 3039 3039 3040 3040 3041 3042 3043 3044 3045 3047 3048 3049 3050 3051 3052 3052 3053 3053 3054 3055 3055 3055 3056 3056 3056 3056 3055 3055 3055 3054 3054 3054 3054 3053 3053
3083 3082 3081 3079 3078 3077 3076 3075 3073 3072 3070 3068 3066 3065 3063 3061 3059 3057 3056 3054 3052 3051 3050 3048 3046 3044 3043 3041 3040 3039 3038 3038 3037 3037 3037 3036 3036 3036 3036 3036 3037 3037 3037 3037 3037 3037 3037 3037 3038 3038 3039 3039 3040 3040 3041 3042 3043 3044 3045 3046 3047 3048 3049 3050 3051 3051 3052 3052 3053 3053 3054 3054 3054 3054 3054 3054 3054 3053 3053 3053 3053 3052 3052 3052 3051
3084 3082 3081 3080 3078 3077 3076 3075 3074 3072 3071 3068 3066 3065 3063 3061 3060 3058 3056 3054 3053 3051 3050 3048 3046 3044 3043 3041 3040 3039 3038 3037 3037 3036 3036 3036 3036 3036 3036 3037 3037 3037 3037 3037 3037 3037 3037 3037 3038 3038 3039 3039 3040 3041 3041 3042 3043 3044 3045 3046 3047 3048 3048 3049 3050 3050 3051 3051 3052 3052 3053 3053 3053 3053 3052 3052 3052 3052 3052 3051 3051 3051 3050 3050 3049
3084 3082 3081 3080 3078 3076 3075 3074 3073 3072 3070 3068 3066 3065 3064 3062 3060 3059 3057 3055 3053 3052 3050 3049 3047 3045 3043 3042 3040 3039 3037 3037 3036 3036 3036 3036 3036 3036 3036 3037 3037 3037 3037 3037 3037 3037 3037 3038 3038 3038 3039 3039 3040 3041 3041 3042 3043 3044 3044 3045 3046 3047 3048 3048 3049 3049 3050 3051 3051 3051 3051 3051 3051 3051 3051 3051 3051 3051 3050 3050 3049 3049 3048 3047 3047
3083 3082 3081 3080 3078 3077 3075 3074 3073 3071 3070 3068 3067 3065 3064 3063 3061 3059 3057 3056 3054 3052 3051 3049 3047 3045 3044 3042 3040 3039 3037 3036 3036 3035 3035 3035 3035 3035 3036 3036 3037 3037 3037 3037 3037 3037 3037 3038 3038 3038 3039 3039 3040 3041 3041 3042 3043 3043 3044 3045 3045 3046 3047 3047 3048 3049 3049 3050 3050 3050 3050 3050 3050 3050 3050 3050 3050 3049 3049 3048 3047 3047 3046 3046 3046
3083 3082 3081 3079 3078 3077 3075 3074 3073 3071 3070 3069 3067 3066 3064 3062 3061 3059 3057 3056 3054 3053 3051 3049 3048 3046 3044 3042 3040 3039 3038 3036 3036 3035 3035 3035 3035 3035 3035 3036 3036 3036 3036 3037 3037 3037 3037 3037 3038 3038 3039 3039 3040 3040 3041 3042 3042 3043 3044 3044 3045 3046 3046 3047 3048 3048 3048 3048 3049 3049 3049 3049 3049 3049 3049 3049 3048 3048 3047 3046 3046 3046 3046 3045 3045
3082 3081 3080 3079 3078 3076 3075 3074 3072 3071 3070 3068 3067 3065 3064 3062 3060 3059 3057 3055 3054 3052 3051 3050 3048 3046 3045 3043 3041 3040 3038 3037 3036 3035 3035 3035 3035 3035 3035 3035 3036 3036 3036 3036 3036 3036 3037 3037 3038 3038 3038 3039 3040 3040 3041 3041 3042 3043 3043 3044 3045 3046 3046 3047 3047 3047 3047 3047 3047 3048 3048 3048 3048 3048 3048 3047 3047 3047 3046 3046 3046 3046 3046 3045 3045
3081 3080 3079 3078 3077 3076 3074 3073 3071 3070 3069 3067 3066 3064 3063 3061 3060 3059 3057 3056 3054 3053 3051 3050 3048 3047 3045 3044 3042 3041 3039 3038 3036 3035 3034 3034 3034 3035 3035 3035 3035 3035 3035 3035 3036 3036 3036 3037 3037 3038 3038 3038 3039 3040 3040 3041 3042 3043 3043 3044 3045 3045 3046 3046 3046 3046 3046 3046 3047 3047 3047 3047 3047 3047 3047 3047 3047 3047 3047 3046 3046 3045 3045 3044 3044
3081 3080 3078 3077 3076 3075 3074 3072 3071 3069 3068 3066 3065 3063 3062 3061 3060 3059 3057 3056 3054 3053 3052 3050 3049 3047 3046 3044 3043 3041 3040 3039 3037 3036 3035 3034 3034 3034 3034 3034 3034 3034 3035 3035 3035 3036 3036 3036 3037 3037 3038 3038 3039 3040 3040 3041 3042 3042 3043 3044 3044 3045 3045 3045 3045 3045 3046 3046 3046 3046 3046 3046 3046 3046 3047 3047 3047 3047 3046 3046 3045 3044 3044 3044 3043
3080 3079 3077 3076 3075 3074 3073 3071 3070 3069 3067 3066 3064 3063 3062 3060 3059 3058 3057 3056 3054 3053 3051 3050 3049 3047 3046 3044 3043 3042 3041 3039 3038 3037 3036 3035 3034 3034 3034 3034 3034 3034 3034 3034 3035 3035 3036 3036 3036 3037 3038 3038 3039 3040 3040 3041 3042 3042 3043 3043 3044 3044 3044 3044 3045 3045 3045 3046 3046 3046 3046 3046 3046 3046 3046 3046 3046 3046 3045 3045 3044 3044 3043 3043 3043
3079 3077 3076 3075 3074 3073 3071 3070 3069 3068 3066 3065 3064 3062 3061 3060 3058 3057 3056 3055 3054 3052 3051 3050 3049 3047 3046 3044 3043 3042 3041 3040 3038 3037 3036 3035 3034 3034 3033 3033 3033 3033 3034 3034 3034 3035 3035 3036 3036 3037 3038 3038 3039 3040 3040 3041 3041 3042 3042 3043 3043 3043 3044 3044 3044 3045 3045 3045 3045 3045 3045 3045 3045 3045 3045 3045 3045 3044 3044 3044 3043 3043 3043 3043 3043